Location: Dana
(41.8364°N, 106.7042°W)
Time: 15:14:11
(UTC+00:00)

Transit 2A - Pass Details

Date: 10 May 2026
Orbit: 595 x 948 km, 66.7° (Epoch: 8 June)

Event Time Altitude Azimuth Distance (km) Brightness Sun altitude
Rises 06:56:59 0° 341° (NNW) 3,265 10.3 -30.5°
Reaches altitude 10° 07:01:15 10° 13° (NNE) 2,235 9.3 -30.5°
Maximum altitude 07:03:03 12° 34° (NE) 2,073 8.8 -30.5°
Drops below altitude 10° 07:04:49 10° 55° (NE) 2,152 8.7 -30.5°
Enters shadow 07:07:53 - 83° (E) 2,760 9.0 -30.5°
Sets 07:08:41 0° 88° (E) 2,980 - -30.5°
